TimeEST,TemperatureF,Dew PointF,Humidity,Sea Level PressureIn,VisibilityMPH,Wind Direction,Wind SpeedMPH,Gust SpeedMPH,PrecipitationIn,Events,Conditions,WindDirDegrees,DateUTC
12:15 AM,41.0,32.0,70,30.08,10.0,NW,9.2,-,N/A,,Overcast,310,2013-03-03 05:15:00
12:35 AM,41.0,32.0,70,30.09,10.0,WNW,10.4,-,N/A,,Overcast,300,2013-03-03 05:35:00
12:55 AM,41.0,32.0,70,30.09,10.0,NW,11.5,-,N/A,,Overcast,320,2013-03-03 05:55:00
1:15 AM,41.0,32.0,70,30.09,10.0,NW,10.4,17.3,N/A,,Overcast,310,2013-03-03 06:15:00
2:15 AM,39.2,30.2,70,30.09,10.0,NW,12.7,-,N/A,,Overcast,310,2013-03-03 07:15:00
2:35 AM,39.2,30.2,70,30.09,10.0,WNW,11.5,-,N/A,,Overcast,300,2013-03-03 07:35:00
2:55 AM,39.2,30.2,70,30.08,10.0,WNW,10.4,-,N/A,,Overcast,300,2013-03-03 07:55:00
3:15 AM,39.2,30.2,70,30.08,10.0,WNW,9.2,-,N/A,,Overcast,300,2013-03-03 08:15:00
3:35 AM,39.2,30.2,70,30.08,10.0,WNW,10.4,-,N/A,,Overcast,300,2013-03-03 08:35:00
3:55 AM,39.2,30.2,70,30.08,10.0,NW,12.7,-,N/A,,Overcast,310,2013-03-03 08:55:00
4:15 AM,39.2,30.2,70,30.08,10.0,WNW,9.2,-,N/A,,Overcast,300,2013-03-03 09:15:00
4:35 AM,39.2,30.2,70,30.08,10.0,NW,10.4,-,N/A,,Overcast,310,2013-03-03 09:35:00
4:55 AM,39.2,30.2,70,30.08,10.0,NW,9.2,-,N/A,,Overcast,310,2013-03-03 09:55:00
5:15 AM,39.2,30.2,70,30.09,10.0,WNW,11.5,-,N/A,,Overcast,300,2013-03-03 10:15:00
5:35 AM,39.2,30.2,70,30.09,10.0,WNW,10.4,-,N/A,,Overcast,300,2013-03-03 10:35:00
6:15 AM,39.2,30.2,70,30.09,10.0,WNW,10.4,-,N/A,,Overcast,300,2013-03-03 11:15:00
6:35 AM,39.2,30.2,70,30.09,10.0,WNW,11.5,17.3,N/A,,Overcast,300,2013-03-03 11:35:00
6:55 AM,39.2,32.0,75,30.09,10.0,NW,10.4,-,N/A,,Overcast,310,2013-03-03 11:55:00
7:35 AM,39.2,32.0,75,30.10,10.0,WNW,8.1,-,N/A,,Overcast,300,2013-03-03 12:35:00
8:15 AM,39.2,32.0,75,30.11,10.0,NW,12.7,-,N/A,,Overcast,310,2013-03-03 13:15:00
8:35 AM,39.2,32.0,75,30.13,10.0,NW,10.4,-,N/A,,Mostly Cloudy,310,2013-03-03 13:35:00
9:15 AM,39.2,30.2,70,30.14,10.0,NW,13.8,-,N/A,,Mostly Cloudy,320,2013-03-03 14:15:00
9:35 AM,39.2,30.2,70,30.14,10.0,NW,13.8,-,N/A,,Mostly Cloudy,310,2013-03-03 14:35:00
9:55 AM,39.2,30.2,70,30.14,10.0,NW,15.0,18.4,N/A,,Mostly Cloudy,310,2013-03-03 14:55:00
10:15 AM,41.0,28.4,61,30.15,10.0,NW,15.0,-,N/A,,Mostly Cloudy,310,2013-03-03 15:15:00
10:35 AM,41.0,26.6,57,30.15,10.0,NW,16.1,-,N/A,,Mostly Cloudy,310,2013-03-03 15:35:00
10:55 AM,41.0,26.6,57,30.15,10.0,NW,12.7,-,N/A,,Overcast,320,2013-03-03 15:55:00
11:15 AM,39.2,28.4,65,30.15,10.0,NW,12.7,16.1,N/A,,Overcast,320,2013-03-03 16:15:00
11:35 AM,41.0,30.2,65,30.15,10.0,WNW,13.8,-,N/A,,Mostly Cloudy,300,2013-03-03 16:35:00
11:55 AM,42.8,28.4,57,30.14,-9999.0,WNW,12.7,18.4,N/A,,Mostly Cloudy,300,2013-03-03 16:55:00
12:15 PM,41.0,26.6,57,30.14,10.0,NW,9.2,-,N/A,,Scattered Clouds,320,2013-03-03 17:15:00
12:35 PM,42.8,28.4,57,30.12,10.0,NW,13.8,-,N/A,,Mostly Cloudy,310,2013-03-03 17:35:00
12:55 PM,42.8,28.4,57,30.12,10.0,NW,10.4,-,N/A,,Mostly Cloudy,310,2013-03-03 17:55:00
1:15 PM,42.8,28.4,57,30.11,10.0,NW,12.7,18.4,N/A,,Scattered Clouds,320,2013-03-03 18:15:00
1:35 PM,44.6,26.6,49,30.10,10.0,WNW,12.7,20.7,N/A,,Scattered Clouds,290,2013-03-03 18:35:00
1:55 PM,44.6,28.4,53,30.09,10.0,WNW,11.5,18.4,N/A,,Scattered Clouds,290,2013-03-03 18:55:00
2:15 PM,46.4,26.6,46,30.09,10.0,WNW,15.0,18.4,N/A,,Scattered Clouds,300,2013-03-03 19:15:00
2:35 PM,46.4,26.6,46,30.08,10.0,WNW,12.7,23.0,N/A,,Scattered Clouds,290,2013-03-03 19:35:00
2:55 PM,46.4,26.6,46,30.08,10.0,WNW,11.5,17.3,N/A,,Scattered Clouds,290,2013-03-03 19:55:00
3:15 PM,50.0,26.6,40,30.08,10.0,NW,10.4,19.6,N/A,,Scattered Clouds,310,2013-03-03 20:15:00
3:35 PM,50.0,26.6,40,30.07,10.0,WNW,13.8,20.7,N/A,,Clear,300,2013-03-03 20:35:00
3:55 PM,50.0,26.6,40,30.07,10.0,WNW,16.1,20.7,N/A,,Clear,300,2013-03-03 20:55:00
4:15 PM,50.0,26.6,40,30.07,10.0,WNW,15.0,21.9,N/A,,Clear,300,2013-03-03 21:15:00
4:35 PM,50.0,24.8,37,30.07,10.0,WNW,15.0,20.7,N/A,,Clear,290,2013-03-03 21:35:00
4:55 PM,50.0,24.8,37,30.07,10.0,NW,12.7,16.1,N/A,,Clear,310,2013-03-03 21:55:00
5:15 PM,50.0,24.8,37,30.08,10.0,NW,8.1,-,N/A,,Clear,320,2013-03-03 22:15:00
5:35 PM,50.0,24.8,37,30.08,10.0,NW,12.7,-,N/A,,Clear,310,2013-03-03 22:35:00
5:55 PM,50.0,26.6,40,30.09,10.0,WNW,12.7,17.3,N/A,,Clear,300,2013-03-03 22:55:00
6:15 PM,48.2,24.8,40,30.10,10.0,NW,9.2,-,N/A,,Clear,320,2013-03-03 23:15:00
6:35 PM,46.4,24.8,43,30.10,10.0,NW,8.1,-,N/A,,Clear,310,2013-03-03 23:35:00
6:55 PM,44.6,26.6,49,30.11,10.0,NW,5.8,-,N/A,,Clear,310,2013-03-03 23:55:00
7:15 PM,44.6,28.4,53,30.11,10.0,WNW,4.6,-,N/A,,Clear,290,2013-03-04 00:15:00
7:35 PM,42.8,28.4,57,30.12,10.0,WNW,5.8,-,N/A,,Clear,300,2013-03-04 00:35:00
7:55 PM,42.8,30.2,61,30.13,10.0,WNW,6.9,-,N/A,,Clear,300,2013-03-04 00:55:00
8:15 PM,42.8,28.4,57,30.14,10.0,WNW,5.8,-,N/A,,Clear,300,2013-03-04 01:15:00
8:35 PM,41.0,30.2,65,30.14,10.0,WNW,3.5,-,N/A,,Clear,300,2013-03-04 01:35:00
8:55 PM,41.0,30.2,65,30.15,10.0,WNW,3.5,-,N/A,,Clear,290,2013-03-04 01:55:00
9:15 PM,41.0,30.2,65,30.15,10.0,Calm,Calm,-,N/A,,Clear,0,2013-03-04 02:15:00
9:35 PM,39.2,30.2,70,30.16,10.0,West,3.5,-,N/A,,Clear,260,2013-03-04 02:35:00
9:55 PM,37.4,32.0,81,30.17,10.0,West,3.5,-,N/A,,Clear,270,2013-03-04 02:55:00
10:15 PM,37.4,32.0,81,30.17,10.0,WSW,3.5,-,N/A,,Clear,250,2013-03-04 03:15:00
10:35 PM,35.6,32.0,87,30.17,10.0,Calm,Calm,-,N/A,,Clear,0,2013-03-04 03:35:00
10:55 PM,35.6,30.2,81,30.17,10.0,Calm,Calm,-,N/A,,Clear,0,2013-03-04 03:55:00
11:15 PM,35.6,32.0,87,30.17,10.0,Calm,Calm,-,N/A,,Clear,0,2013-03-04 04:15:00
11:35 PM,35.6,32.0,87,30.17,10.0,Calm,Calm,-,N/A,,Clear,0,2013-03-04 04:35:00
11:55 PM,35.6,30.2,81,30.17,10.0,Calm,Calm,-,N/A,,Clear,0,2013-03-04 04:55:00